User: anonymous   Login
Location: Byszew
(52.1813°N, 19.2693°E)
Time: 06:20:09
(UTC+00:00)
Language:

Gbstr 26 Del rocket - Orbit

View from above orbital plane
View from above orbital plane
View from above satellite
View from above satellite

Ground track
Ground track

The orbit data is extracted from the following two-line orbital elements,

1 25876U 99041E   21134.25542579 -.00000128  00000-0  17575-4 0  9992
2 25876  51.7670  84.3096 0530498 228.9315 126.4624 14.04569770115112
Epoch (UTC): 14 May 2021 06:07:48
Eccentricity: 0.0530498
inclination: 51.7670°
perigee height: 493 km
apogee height: 1263 km
right ascension of ascending node: 84.3096°
argument of perigee: 228.9315°
revolutions per day: 14.04569770
mean anomaly at epoch: 126.4624°
orbit number at epoch: 11511

The dashed part of the orbit path shows where the satellite is in the earth's shadow,  

DLR